#timestamp,LO_Frequency,Hit,StdDev 
1621922415.5,286047003.2,N
1621922435.3,286047005.5,N
1621922455.1,286047007.4,Y
1621922475.9,286047002.6,P
1621922495.7,286047001.2,N
1621922515.6,286046998.7,N
1621922535.4,286046999.7,N
1621922555.2,286047003.8,N
1621922575.1,286047002.4,N
1621922576.0,286047002.4,N
1621922595.8,286047000.2,N
1621922615.6,286046998.4,N
1621922635.5,286047000.9,N
1621922655.3,286047002.2,N
1621922675.2,286047000.0,N
1621922695.9,286046998.1,N
1621922715.7,286046997.4,N
1621922735.6,286046997.6,N
1621922755.4,286046996.5,N
1621922775.2,286047001.2,N
1621922795.1,286047000.2,N
1621922796.0,286047000.2,N
1621922815.8,286047004.0,N
1621922835.7,286047004.0,N
1621922855.5,286047004.4,N
1621922875.3,286046998.7,N
1621922895.2,286046996.8,N
1621922915.0,286046997.2,N
1621922915.9,286046997.2,N
1621922935.7,286046996.8,N
1621922955.6,286046997.5,N
1621922975.4,286046998.0,N
1621922995.3,286046998.0,N
1621923015.1,286046998.8,N
1621923016.0,286046998.8,N
1621923035.8,286046995.3,N
1621923055.7,286046996.3,N
1621923075.5,286046993.7,N
1621923095.3,286046995.6,N
1621923115.2,286046993.5,N
1621923135.0,286046994.4,N
1621923135.9,286046994.4,N
1621923155.8,286046994.4,N
1621923175.6,286046994.5,N
1621923195.4,286046995.3,N
1621923215.3,286046993.7,N
1621923235.1,286046998.0,N
1621923255.8,286046997.7,N
1621923275.7,286046996.1,N
1621923295.5,286046996.2,N
1621923315.4,286046994.9,N
1621923335.2,286046996.2,N
1621923355.0,286046995.1,N
1621923355.9,286046995.1,N
1621923375.8,286046995.1,N
1621923395.6,286046995.3,N
1621923415.4,286046993.5,Y
1621923435.3,286046997.2,P
1621923455.1,286046997.1,P
1621923475.9,286046997.7,P
1621923495.7,286046996.1,Y
1621923515.5,286046998.1,P
1621923535.4,286046998.9,N
1621923555.2,286046998.6,N
1621923575.0,286046998.8,N
1621923576.0,286046998.8,N
1621923595.8,286047000.7,N
1621923615.6,286046998.5,N
1621923635.5,286047000.2,N
1621923655.3,286046999.9,N
1621923675.1,286047000.1,N
1621923695.9,286047000.5,N
1621923715.7,286047001.2,N
1621923735.5,286047000.3,N
1621923755.4,286047002.7,N
1621923775.2,286047002.8,N
1621923795.1,286047002.4,N
1621923796.0,286047002.4,N
1621923815.8,286046999.7,N
1621923835.6,286047000.3,N
1621923855.5,286046998.2,N
1621923875.3,286047002.4,N
1621923895.1,286047001.5,N
1621923915.9,286047005.5,Y
1621923935.7,286047001.5,P
1621923955.6,286047001.3,N
1621923975.4,286047001.8,P
1621923995.2,286046999.8,N
1621924015.1,286047000.2,N
1621924016.0,286047000.2,N
1621924035.8,286046999.3,N
1621924055.6,286047002.4,N
1621924075.5,286047001.3,N
1621924095.3,286047003.6,Y
1621924115.2,286047004.4,P
1621924135.9,286047003.3,N
1621924155.7,286047006.0,P
1621924175.6,286047004.7,N
1621924195.4,286047005.2,N
1621924215.3,286047005.5,Y
1621924235.1,286046997.2,P
1621924236.0,286046997.2,N
1621924255.8,286046997.1,N
1621924275.7,286046997.6,N
1621924295.5,286046998.9,N
1621924315.3,286046997.5,N
1621924335.2,286047000.2,N
1621924355.0,286047002.0,N
1621924355.9,286047002.0,N
1621924375.8,286047001.4,N
1621924395.6,286047003.1,N
1621924415.4,286047004.0,N
1621924435.3,286047004.2,N
1621924455.1,286047004.4,N
1621924475.9,286047003.2,N
1621924495.7,286047004.0,N
1621924515.5,286047002.6,N
1621924535.4,286047003.9,N
1621924555.2,286047003.8,N
1621924575.0,286047003.7,N
1621924575.9,286047003.7,N
1621924595.8,286047002.3,N
1621924615.6,286046998.1,N
1621924635.5,286046999.8,N
1621924655.3,286047002.4,N
1621924675.1,286047002.6,N
1621924695.9,286047004.4,N
1621924715.7,286047000.7,N
1621924735.5,286047002.5,N
1621924755.4,286047000.5,N
1621924775.2,286046998.8,N
1621924795.1,286047000.1,N
1621924796.0,286047000.1,N
1621924815.8,286047002.4,N
1621924835.6,286047003.6,N
1621924855.5,286047001.9,N
1621924875.3,286047000.0,N
1621924895.1,286047002.8,N
1621924915.9,286047000.5,N
1621924935.7,286046998.6,N
1621924955.6,286047002.8,N
1621924975.4,286047001.6,N
1621924995.2,286046998.3,N
1621925015.1,286046999.0,N
1621925016.0,286046999.0,N
1621925035.8,286046999.8,N
1621925055.6,286047002.5,N
1621925075.5,286047004.2,N
1621925095.3,286047003.2,N
1621925115.2,286047005.6,N
1621925135.9,286047005.7,N
1621925155.7,286047005.5,N
1621925175.6,286047005.6,N
1621925195.4,286047005.2,N
1621925215.2,286047004.3,N
1621925235.1,286047002.0,N
1621925236.0,286047002.0,N
1621925255.8,286047002.6,N
1621925275.7,286047001.2,N
1621925295.5,286047000.9,N
1621925315.3,286046999.8,N
1621925335.2,286047002.1,N
1621925355.0,286047003.3,N
1621925355.9,286047003.3,N
1621925375.8,286047004.7,N
1621925395.6,286047003.5,N
1621925415.4,286047002.7,N
1621925435.3,286046999.8,N
1621925455.1,286046996.8,N
1621925475.9,286046998.2,N
1621925495.7,286046998.5,N
1621925515.5,286047001.0,N
1621925535.4,286047002.5,N
1621925555.2,286047004.4,N
1621925575.0,286047003.9,N
1621925575.9,286047003.9,N
1621925595.8,286047003.8,N
1621925615.6,286047005.2,N
1621925635.5,286047003.3,N
1621925655.3,286047003.9,N
1621925675.1,286047004.0,N
1621925695.9,286046998.5,N
1621925715.7,286046997.5,N
1621925735.5,286046996.6,N
1621925755.4,286046998.7,N
1621925775.2,286046999.7,N
1621925795.1,286047002.0,N
1621925796.0,286047002.0,N
1621925815.8,286047004.3,N
1621925835.7,286047005.8,N
1621925855.5,286047003.5,N
1621925875.3,286047004.1,N
1621925895.2,286047005.8,N
1621925915.0,286047005.6,N
1621925915.9,286047005.6,N
1621925935.8,286047003.6,N
1621925955.6,286047006.0,N
1621925975.4,286047004.0,N
1621925995.3,286047004.1,N
